Location: Tuebingen alte Sternwarte
(48.5376°N, 9.0555°E)
Time: 11:41:57
(UTC+02:00)

OTV 5 (USA 277) - Pass Details

Date: 23 June 2018
Orbit: 312 x 321 km, 54.5° (Epoch: 05 July)

Event Time Altitude Azimuth Distance (km) Brightness Sun altitude
Rises 01:26:23 0° 300° (WNW) 2,052 ? -18.0°
Reaches altitude 10° 01:28:21 10° 304° (WNW) 1,221 ? -18.0°
Maximum altitude 01:31:03 65° 26° (NNE) 353 ? -18.0°
Enters shadow 01:31:19 59° 67° (ENE) 373 ? -18.0°
